Location: Krasnoyarskiy Pitomnik
(51.1333°N, 71.6167°E)
Time: 21:42:24
(UTC+00:00)

A-11 Canister half - Pass Details

Date: 23 April 2024
Orbit: 1525 x 1683 km, 47.3° (Epoch: 19 May)

Event Time Altitude Azimuth Distance (km) Brightness Sun altitude
Rises 07:49:32 0° 288° (WNW) 4,942 11.6 50.8°
Reaches altitude 10° 07:53:49 10° 273° (W) 3,946 11.4 50.7°
Maximum altitude 08:00:26 20° 231° (SW) 3,186 11.6 50.4°
Drops below altitude 10° 08:07:00 10° 189° (S) 3,886 12.0 50.0°
Sets 08:11:13 0° 174° (S) 4,845 12.2 49.8°
